sat.trackr.live / text

‹ back to catalog

STARLINK-6334

NORAD 57238 · 2023-094W

PAYLOAD ACTIVE UNKNOWN

§ Identity

Operator
Country
US
Launch date
2023-07-07
Launch site
AFWTR
Launch vehicle
Mass (kg)
RCS (m²)

Purposes: comms

External: N2YO · Heavens-Above · Gunter

§ Orbital elements

Epoch: 2026-05-25T04:04:11.203104Z

Period
94.27 min
Inclination
43.0058°
Eccentricity
0.0001574
Mean motion
15.27577328 rev/d
Perigee alt
482.0 km
Apogee alt
484.1 km
Semi-major
6,861.2 km
B*
-7.0711e-6
RAAN
308.2221°
Arg perigee
266.9902°
Mean anomaly
93.0770°
Rev number
15,893

§ Raw data

STARLINK-63341 57238U 23094W   26145.16957411 -.00000457  00000+0 -70711-5 0  99932 57238  43.0058 308.2221 0001574 266.9902  93.0770 15.27577328158935

JSON: /api/v1/satellites/57238 · /tle

For live sub-satellite position, see the globe view (requires WebGL).

§ Visibility from observer

Set your observer location to see the next 7 days of passes ≥ 10°. The values pass through the URL so the page stays shareable.

No JS? Fill the form by hand. The geolocation button needs JavaScript.